Flag for Germany Weather past 2 weeks in Nürburg, Rhineland-Palatinate, Germany

Now
58 °F

Passing clouds.


Feels Like: 56 °F
Forecast: 40 / 53 °F
Wind: 9 mph from East

Location: Nuerburg-Barweiler

Current Time: Oct 20, 2014 at 3:44:12 PM

Latest Report: Oct 20, 2014 at 3:00 PM


Visibility: 2 mi

Pressure: 30.06 "Hg

Humidity: 66%

Dew point: 46 °F

Location of NürburgLocation

Historic Weather in Nürburg — Graph

°F

Nürburg temperature yesterday

Maximum temperature yesterday: 65 °F (at 6:00 PM)
Minimum temperature yesterday: 54 °F (at 9:00 AM)
Average temperature yesterday: 60 °F

Past Weeks' High & Low Weather Summary

 TemperatureHumidityPressure
High67 °F (Oct 18, 4:00 PM)100% (Oct 5, 3:00 PM)30.14 "Hg (Oct 5, 3:00 PM)
Low40 °F (Oct 12, 8:00 AM)60% (Oct 14, 4:00 PM)29.55 "Hg (Oct 7, 9:00 AM)
Average54 °F90%29.87 "Hg
* Reported Oct 5 3:00 PM — Oct 20 3:00 PM, Nürburg, Weather by CustomWeather, © 2014

Note: Actual official high and low records may vary slightly from our data, if they occured in-between our weather recording intervals... More about our weather records

Advertising

Nürburg weather history for previous 24 hours

 ConditionsComfort  
Time TempWeatherWind HumidityBarometerVisibility
3:00 PM
Oct 20
58 °FOvercast.5 mph66%30.06 "Hg37 mi
2:00 PM57 °FOvercast.7 mph67%30.07 "Hg37 mi
1:00 PM57 °FOvercast.6 mph68%30.08 "Hg37 mi
12:00 PM55 °FOvercast.6 mph75%30.09 "Hg37 mi
10:00 AM53 °FOvercast.6 mph86%30.09 "Hg31 mi
9:00 AM54 °FOvercast.5 mph89%30.08 "Hg31 mi
8:00 AM54 °FOvercast.3 mph91%30.08 "Hg31 mi
7:00 AM54 °FOvercast.3 mph91%30.07 "Hg37 mi
5:00 AM53 °FOvercast.3 mph91%30.09 "Hg28 mi
4:00 AM54 °FPassing clouds.5 mph89%30.09 "Hg28 mi
3:00 AM55 °FPassing clouds.6 mph88%30.09 "Hg31 mi
2:00 AM56 °FOvercast.6 mph87%30.09 "Hg34 mi
1:00 AM57 °FOvercast.5 mph85%30.09 "Hg40 mi
12:00 AM59 °FOvercast.5 mph95%30.07 "Hg16 mi
11:00 PM
Oct 19
62 °FLight freezing rain. Low clouds.8 mph87%30.04 "Hg6 mi
10:00 PM61 °FPassing clouds.6 mph90%30.03 "Hg12 mi
9:00 PM61 °FPassing clouds.6 mph89%30.02 "Hg14 mi
8:00 PM62 °FPassing clouds.3 mph86%30.03 "Hg16 mi
7:00 PM63 °FOvercast.5 mph83%30.03 "Hg14 mi
6:00 PM65 °FPartly sunny.5 mph79%30.01 "Hg15 mi
4:00 PM65 °FPassing clouds.6 mph80%30.03 "Hg17 mi
3:00 PM63 °FScattered clouds.7 mph81%30.05 "Hg17 mi
Weather by CustomWeather, © 2014

See weather overviewHow to use our weather pages